START_TIME,STEP,MOV.,AL01,t_acc.,AL02,t_acc.,E37,t_acc.,H21,t_acc.
1979-07-13 03:00:34.650 ,1,0,6.,24.0,0.,24.0,0.,24.0,0.,24.0
1979-07-13 03:00:58.650 ,2,1,5.,24.0,2.,24.0,0.,24.0,0.,24.0
1979-07-13 03:01:22.650 ,2,0,5.,24.0,3.,24.0,0.,24.0,0.,24.0
1979-07-13 03:01:46.650 ,3,1,2.,24.0,0.,24.0,0.,24.0,0.,24.0
1979-07-13 03:02:10.650 ,3,0,1.,24.0,0.,24.0,0.,24.0,0.,24.0
1979-07-13 03:02:34.650 ,4,1,2.,24.0,1.,24.0,0.,24.0,0.,24.0
1979-07-13 03:02:58.650 ,4,0,4.,24.0,1.,24.0,0.,24.0,0.,24.0
1979-07-13 03:03:22.650 ,5,1,7.,24.0,0.,24.0,0.,24.0,0.,24.0
1979-07-13 03:03:46.650 ,5,0,16.,24.0,0.,24.0,0.,24.0,0.,24.0
1979-07-13 03:04:10.650 ,6,1,15.,24.0,1.,24.0,0.,24.0,0.,24.0
1979-07-13 03:04:34.650 ,6,0,7.,24.0,1.,24.0,0.,24.0,0.,24.0
1979-07-13 03:04:58.650 ,7,1,12.,24.0,1.,24.0,0.,24.0,0.,24.0
1979-07-13 03:05:22.650 ,7,0,32.,24.0,0.,24.0,0.,24.0,0.,24.0
1979-07-13 03:05:46.650 ,7,1,25.,24.0,0.,24.0,0.,24.0,0.,24.0
1979-07-13 03:06:10.650 ,7,0,23.,24.0,0.,24.0,0.,24.0,0.,24.0
1979-07-13 03:06:34.650 ,6,1,30.,24.0,0.,24.0,0.,24.0,0.,24.0
1979-07-13 03:06:58.650 ,6,0,13.,24.0,6.,24.0,0.,24.0,0.,24.0
1979-07-13 03:07:22.650 ,5,1,19.,24.0,5.,24.0,0.,24.0,0.,24.0
1979-07-13 03:07:46.650 ,5,0,32.,24.0,3.,24.0,0.,24.0,0.,24.0
1979-07-13 03:08:10.650 ,4,1,27.,24.0,8.,24.0,0.,24.0,0.,24.0
1979-07-13 03:08:34.650 ,4,0,35.,24.0,4.,24.0,0.,24.0,0.,24.0
1979-07-13 03:08:58.650 ,3,1,23.,24.0,2.,24.0,0.,24.0,0.,24.0
1979-07-13 03:09:22.650 ,3,0,24.,24.0,6.,24.0,0.,24.0,0.,24.0
1979-07-13 03:09:46.650 ,2,1,24.,24.0,3.,24.0,0.,24.0,0.,24.0
1979-07-13 03:10:10.650 ,2,0,9.,24.0,3.,24.0,0.,24.0,0.,24.0
1979-07-13 03:10:34.650 ,1,1,14.,24.0,0.,24.0,0.,24.0,0.,24.0
1979-07-13 03:10:58.650 ,1,0,9.,24.0,0.,24.0,0.,24.0,0.,24.0
1979-07-13 03:11:22.650 ,0,1,7.,24.0,1.,24.0,0.,24.0,0.,24.0
1979-07-13 03:11:46.650 ,0,0,2.,24.0,2.,24.0,0.,24.0,0.,24.0
1979-07-13 03:12:10.650 ,0,1,4.,24.0,1.,24.0,0.,24.0,0.,24.0
1979-07-13 03:12:34.650 ,0,0,8.,24.0,2.,24.0,0.,24.0,0.,24.0
1979-07-13 03:12:58.650 ,1,1,11.,24.0,1.,24.0,0.,24.0,0.,24.0
1979-07-13 03:13:22.650 ,1,0,6.,24.0,4.,24.0,0.,24.0,0.,24.0
1979-07-13 03:13:46.650 ,2,1,13.,24.0,1.,24.0,0.,24.0,0.,24.0
1979-07-13 03:14:10.650 ,2,0,20.,24.0,1.,24.0,0.,24.0,0.,24.0
1979-07-13 03:14:34.650 ,3,1,17.,24.0,2.,24.0,0.,24.0,0.,24.0
1979-07-13 03:14:58.650 ,3,0,10.,24.0,6.,24.0,0.,24.0,0.,24.0
1979-07-13 03:15:22.650 ,4,1,19.,24.0,4.,24.0,0.,24.0,0.,24.0
1979-07-13 03:15:46.650 ,4,0,16.,24.0,4.,24.0,0.,24.0,0.,24.0
1979-07-13 03:16:10.650 ,5,1,19.,24.0,9.,24.0,0.,24.0,0.,24.0
1979-07-13 03:16:34.650 ,5,0,47.,24.0,1.,24.0,0.,24.0,0.,24.0
1979-07-13 03:16:58.650 ,6,1,27.,24.0,8.,24.0,0.,24.0,0.,24.0
1979-07-13 03:17:22.650 ,6,0,31.,24.0,3.,24.0,0.,24.0,0.,24.0
1979-07-13 03:17:46.650 ,7,1,41.,24.0,10.,24.0,0.,24.0,0.,24.0
1979-07-13 03:18:10.650 ,7,0,29.,24.0,0.,24.0,0.,24.0,0.,24.0
1979-07-13 03:18:34.650 ,7,1,38.,24.0,0.,24.0,0.,24.0,0.,24.0
1979-07-13 03:18:58.650 ,7,0,28.,24.0,0.,24.0,0.,24.0,0.,24.0
1979-07-13 03:19:22.650 ,6,1,40.,24.0,1.,24.0,0.,24.0,0.,24.0
1979-07-13 03:19:46.650 ,6,0,30.,24.0,7.,24.0,0.,24.0,0.,24.0
1979-07-13 03:20:10.650 ,5,1,31.,24.0,7.,24.0,0.,24.0,0.,24.0
1979-07-13 03:20:34.650 ,5,0,49.,24.0,1.,24.0,0.,24.0,0.,24.0
1979-07-13 03:20:58.650 ,4,1,36.,24.0,9.,24.0,0.,24.0,0.,24.0
1979-07-13 03:21:22.650 ,4,0,25.,24.0,9.,24.0,0.,24.0,0.,24.0
1979-07-13 03:21:46.650 ,3,1,29.,24.0,7.,24.0,0.,24.0,0.,24.0
1979-07-13 03:22:10.650 ,3,0,29.,24.0,7.,24.0,0.,24.0,0.,24.0
1979-07-13 03:22:34.650 ,2,1,21.,24.0,2.,24.0,0.,24.0,0.,24.0
1979-07-13 03:22:58.650 ,2,0,29.,24.0,7.,24.0,0.,24.0,0.,24.0
1979-07-13 03:23:22.650 ,1,1,25.,24.0,3.,24.0,0.,24.0,0.,24.0
1979-07-13 03:23:46.650 ,1,0,25.,24.0,5.,24.0,0.,24.0,0.,24.0
1979-07-13 03:24:10.650 ,0,0,19.,24.0,0.,24.0,0.,24.0,0.,24.0
1979-07-13 03:24:34.650 ,0,0,,0,,0,,0,,0
1979-07-13 03:24:58.650 ,0,1,14.,24.0,1.,24.0,0.,24.0,0.,24.0
1979-07-13 03:25:22.650 ,0,0,13.,24.0,0.,24.0,0.,24.0,0.,24.0
1979-07-13 03:25:46.650 ,1,1,19.,24.0,4.,24.0,0.,24.0,0.,24.0
1979-07-13 03:26:10.650 ,1,0,22.,24.0,8.,24.0,0.,24.0,0.,24.0
1979-07-13 03:26:34.650 ,2,1,22.,24.0,4.,24.0,0.,24.0,0.,24.0
1979-07-13 03:26:58.650 ,2,0,33.,24.0,4.,24.0,0.,24.0,0.,24.0
1979-07-13 03:27:22.650 ,3,1,33.,24.0,4.,24.0,0.,24.0,0.,24.0
1979-07-13 03:27:46.650 ,3,0,23.,24.0,5.,24.0,0.,24.0,0.,24.0
1979-07-13 03:28:10.650 ,4,1,31.,24.0,7.,24.0,0.,24.0,0.,24.0
1979-07-13 03:28:34.650 ,4,0,32.,24.0,3.,24.0,0.,24.0,0.,24.0
1979-07-13 03:28:58.650 ,5,1,37.,24.0,11.,24.0,0.,24.0,0.,24.0
1979-07-13 03:29:22.650 ,5,0,62.,24.0,9.,24.0,0.,24.0,0.,24.0
1979-07-13 03:29:46.650 ,6,1,48.,24.0,4.,24.0,0.,24.0,0.,24.0
1979-07-13 03:30:10.650 ,6,0,24.,24.0,5.,24.0,0.,24.0,0.,24.0
1979-07-13 03:30:34.650 ,7,0,28.,24.0,3.,24.0,0.,24.0,0.,24.0
1979-07-13 03:30:58.650 ,7,0,35.,24.0,0.,24.0,0.,24.0,0.,24.0
1979-07-13 03:31:22.650 ,5,1,38.,24.0,0.,24.0,0.,24.0,0.,24.0
1979-07-13 03:31:46.650 ,1,1,34.,24.0,6.,24.0,0.,24.0,0.,24.0
1979-07-13 03:32:10.650 ,2,1,19.,24.0,5.,24.0,0.,24.0,0.,24.0
1979-07-13 03:32:34.650 ,6,1,37.,24.0,4.,24.0,0.,24.0,0.,24.0
1979-07-13 03:32:58.650 ,5,1,37.,24.0,5.,24.0,0.,24.0,0.,24.0
1979-07-13 03:33:22.650 ,1,1,36.,24.0,9.,24.0,0.,24.0,0.,24.0
1979-07-13 03:33:46.650 ,2,1,21.,24.0,0.,24.0,0.,24.0,0.,24.0
1979-07-13 03:34:10.650 ,6,1,52.,24.0,5.,24.0,0.,24.0,0.,24.0
1979-07-13 03:34:34.650 ,5,1,33.,24.0,3.,24.0,0.,24.0,0.,24.0
1979-07-13 03:34:58.650 ,1,1,32.,24.0,6.,24.0,0.,24.0,0.,24.0
1979-07-13 03:35:22.650 ,2,1,23.,24.0,8.,24.0,0.,24.0,0.,24.0
1979-07-13 03:35:46.650 ,6,1,30.,24.0,8.,24.0,0.,24.0,0.,24.0
1979-07-13 03:36:10.650 ,5,1,31.,24.0,3.,24.0,0.,24.0,0.,24.0
1979-07-13 03:36:34.650 ,1,1,41.,24.0,3.,24.0,0.,24.0,0.,24.0
1979-07-13 03:36:58.650 ,2,1,25.,24.0,6.,24.0,0.,24.0,0.,24.0
1979-07-13 03:37:22.650 ,6,1,42.,24.0,6.,24.0,0.,24.0,0.,24.0
1979-07-13 03:37:46.650 ,5,1,34.,24.0,6.,24.0,0.,24.0,0.,24.0
1979-07-13 03:38:10.650 ,1,1,40.,24.0,6.,24.0,0.,24.0,0.,24.0
1979-07-13 03:38:34.650 ,2,1,31.,24.0,9.,24.0,0.,24.0,0.,24.0
1979-07-13 03:38:58.650 ,6,1,33.,24.0,3.,24.0,0.,24.0,0.,24.0
1979-07-13 03:39:22.650 ,5,1,32.,24.0,5.,24.0,0.,24.0,0.,24.0
1979-07-13 03:39:46.650 ,1,1,22.,24.0,7.,24.0,0.,24.0,0.,24.0
1979-07-13 03:40:10.650 ,2,1,20.,24.0,4.,24.0,0.,24.0,0.,24.0
1979-07-13 03:40:34.650 ,6,1,44.,24.0,4.,24.0,0.,24.0,0.,24.0
1979-07-13 03:40:58.650 ,5,1,37.,24.0,2.,24.0,0.,24.0,0.,24.0
1979-07-13 03:41:22.650 ,1,1,22.,24.0,1.,24.0,0.,24.0,0.,24.0
1979-07-13 03:41:46.650 ,0,0,15.,24.0,6.,24.0,0.,24.0,0.,24.0
1979-07-13 03:42:10.650 ,0,0,31.,24.0,7.,24.0,0.,24.0,0.,24.0
1979-07-13 03:42:34.650 ,5,1,36.,24.0,3.,24.0,0.,24.0,0.,24.0
1979-07-13 03:42:58.650 ,5,0,40.,24.0,5.,24.0,0.,24.0,0.,24.0
1979-07-13 03:43:22.650 ,4,1,37.,24.0,3.,24.0,0.,24.0,0.,24.0
1979-07-13 03:43:46.650 ,4,0,37.,24.0,4.,24.0,0.,24.0,0.,24.0
1979-07-13 03:44:10.650 ,3,1,41.,24.0,2.,24.0,0.,24.0,0.,24.0
1979-07-13 03:44:34.650 ,3,0,34.,24.0,8.,24.0,0.,24.0,0.,24.0
1979-07-13 03:44:58.650 ,2,1,28.,24.0,3.,24.0,0.,24.0,0.,24.0
1979-07-13 03:45:22.650 ,2,0,35.,24.0,4.,24.0,0.,24.0,0.,24.0
1979-07-13 03:45:46.650 ,1,1,23.,24.0,5.,24.0,0.,24.0,0.,24.0
1979-07-13 03:46:10.650 ,1,0,23.,24.0,4.,24.0,0.,24.0,0.,24.0
1979-07-13 03:46:34.650 ,0,1,21.,24.0,5.,24.0,0.,24.0,0.,24.0
1979-07-13 03:46:58.650 ,0,0,7.,24.0,1.,24.0,0.,24.0,0.,24.0
1979-07-13 03:47:22.650 ,0,1,8.,24.0,3.,24.0,0.,24.0,0.,24.0
1979-07-13 03:47:46.650 ,0,0,11.,24.0,1.,24.0,0.,24.0,0.,24.0
1979-07-13 03:48:10.650 ,1,1,13.,24.0,1.,24.0,0.,24.0,0.,24.0
1979-07-13 03:48:34.650 ,1,0,19.,24.0,5.,24.0,0.,24.0,0.,24.0
1979-07-13 03:48:58.650 ,2,1,29.,24.0,3.,24.0,0.,24.0,0.,24.0
1979-07-13 03:49:22.650 ,2,0,43.,24.0,5.,24.0,0.,24.0,0.,24.0
1979-07-13 03:49:46.650 ,3,1,37.,24.0,3.,24.0,0.,24.0,0.,24.0
1979-07-13 03:50:10.650 ,3,0,18.,24.0,5.,24.0,0.,24.0,0.,24.0
1979-07-13 03:50:34.650 ,4,1,29.,24.0,2.,24.0,0.,24.0,0.,24.0
1979-07-13 03:50:58.650 ,4,0,36.,24.0,3.,24.0,0.,24.0,0.,24.0
1979-07-13 03:51:22.650 ,5,1,34.,24.0,6.,24.0,0.,24.0,0.,24.0
1979-07-13 03:51:46.650 ,5,0,47.,24.0,5.,24.0,0.,24.0,0.,24.0
1979-07-13 03:52:10.650 ,6,1,42.,24.0,4.,24.0,0.,24.0,0.,24.0
1979-07-13 03:52:34.650 ,6,0,26.,24.0,7.,24.0,0.,24.0,0.,24.0
1979-07-13 03:52:58.650 ,7,1,21.,24.0,5.,24.0,0.,24.0,0.,24.0
1979-07-13 03:53:22.650 ,7,0,37.,24.0,0.,24.0,0.,24.0,0.,24.0
1979-07-13 03:53:46.650 ,7,1,33.,24.0,0.,24.0,0.,24.0,0.,24.0
1979-07-13 03:54:10.650 ,7,0,44.,24.0,0.,24.0,0.,24.0,0.,24.0
1979-07-13 03:54:34.650 ,6,1,28.,24.0,1.,24.0,0.,24.0,0.,24.0
1979-07-13 03:54:58.650 ,6,0,21.,24.0,3.,24.0,0.,24.0,0.,24.0
1979-07-13 03:55:22.650 ,5,1,38.,24.0,3.,24.0,0.,24.0,0.,24.0
1979-07-13 03:55:46.650 ,5,0,36.,24.0,2.,24.0,0.,24.0,0.,24.0
1979-07-13 03:56:10.650 ,4,1,36.,24.0,4.,24.0,0.,24.0,0.,24.0
1979-07-13 03:56:34.650 ,4,0,26.,24.0,3.,24.0,0.,24.0,0.,24.0
1979-07-13 03:56:58.650 ,3,1,20.,24.0,7.,24.0,0.,24.0,0.,24.0
1979-07-13 03:57:22.650 ,3,0,21.,24.0,5.,24.0,0.,24.0,0.,24.0
1979-07-13 03:57:46.650 ,2,1,20.,24.0,2.,24.0,0.,24.0,0.,24.0
1979-07-13 03:58:10.650 ,2,0,24.,24.0,4.,24.0,0.,24.0,0.,24.0
1979-07-13 03:58:34.650 ,1,1,14.,24.0,4.,24.0,0.,24.0,0.,24.0
1979-07-13 03:58:58.650 ,1,0,6.,24.0,1.,24.0,0.,24.0,0.,24.0
1979-07-13 03:59:22.650 ,0,1,5.,24.0,0.,24.0,0.,24.0,0.,24.0
1979-07-13 03:59:46.650 ,0,0,3.,24.0,2.,24.0,0.,24.0,0.,24.0
1979-07-13 04:00:10.650 ,0,1,2.,24.0,0.,24.0,0.,24.0,0.,24.0
1979-07-13 04:00:34.650 ,0,0,3.,24.0,1.,24.0,0.,24.0,0.,24.0
1979-07-13 04:00:58.650 ,1,1,3.,24.0,1.,24.0,0.,24.0,0.,24.0
1979-07-13 04:01:22.650 ,1,0,3.,24.0,3.,24.0,0.,24.0,0.,24.0
1979-07-13 04:01:46.650 ,2,1,9.,24.0,2.,24.0,0.,24.0,0.,24.0
1979-07-13 04:02:10.650 ,2,0,14.,24.0,2.,24.0,0.,24.0,0.,24.0
1979-07-13 04:02:34.650 ,3,1,10.,24.0,4.,24.0,0.,24.0,0.,24.0
1979-07-13 04:02:58.650 ,3,0,15.,24.0,4.,24.0,0.,24.0,0.,24.0
1979-07-13 04:03:22.650 ,4,1,14.,24.0,4.,24.0,0.,24.0,0.,24.0
1979-07-13 04:03:46.650 ,4,0,19.,24.0,3.,24.0,0.,24.0,0.,24.0
1979-07-13 04:04:10.650 ,5,1,20.,24.0,3.,24.0,0.,24.0,0.,24.0
1979-07-13 04:04:34.650 ,5,0,22.,24.0,6.,24.0,0.,24.0,0.,24.0
1979-07-13 04:04:58.650 ,6,1,11.,24.0,2.,24.0,0.,24.0,0.,24.0
1979-07-13 04:05:22.650 ,6,0,16.,24.0,7.,24.0,0.,24.0,0.,24.0
1979-07-13 04:05:46.650 ,7,1,13.,24.0,0.,24.0,0.,24.0,0.,24.0
1979-07-13 04:06:10.650 ,7,0,37.,24.0,0.,24.0,0.,24.0,0.,24.0
1979-07-13 04:06:34.650 ,7,1,28.,24.0,0.,24.0,0.,24.0,0.,24.0
1979-07-13 04:06:58.650 ,7,0,45.,24.0,0.,24.0,0.,24.0,0.,24.0
1979-07-13 04:07:22.650 ,6,1,27.,24.0,0.,24.0,0.,24.0,0.,24.0
1979-07-13 04:07:46.650 ,6,0,6.,24.0,2.,24.0,0.,24.0,0.,24.0
1979-07-13 04:08:10.650 ,5,1,12.,24.0,3.,24.0,0.,24.0,0.,24.0
1979-07-13 04:08:34.650 ,5,0,18.,24.0,2.,24.0,0.,24.0,0.,24.0
1979-07-13 04:08:58.650 ,4,1,15.,24.0,3.,24.0,0.,24.0,0.,24.0
1979-07-13 04:09:22.650 ,4,0,25.,24.0,3.,24.0,0.,24.0,0.,24.0
1979-07-13 04:09:46.650 ,3,1,23.,24.0,0.,24.0,0.,24.0,0.,24.0
1979-07-13 04:10:10.650 ,3,0,14.,24.0,1.,24.0,0.,24.0,0.,24.0
1979-07-13 04:10:34.650 ,2,1,22.,24.0,2.,24.0,0.,24.0,0.,24.0
1979-07-13 04:10:58.650 ,2,0,16.,24.0,3.,24.0,0.,24.0,0.,24.0
1979-07-13 04:11:22.650 ,1,1,12.,24.0,6.,24.0,0.,24.0,0.,24.0
1979-07-13 04:11:46.650 ,1,0,12.,24.0,2.,24.0,0.,24.0,0.,24.0
1979-07-13 04:12:10.650 ,0,1,11.,24.0,1.,24.0,0.,24.0,0.,24.0
1979-07-13 04:12:34.650 ,0,0,3.,24.0,1.,24.0,0.,24.0,0.,24.0
1979-07-13 04:12:58.650 ,0,1,8.,24.0,2.,24.0,0.,24.0,0.,24.0
1979-07-13 04:13:22.650 ,0,0,6.,24.0,3.,24.0,0.,24.0,0.,24.0
1979-07-13 04:13:46.650 ,1,1,7.,24.0,3.,24.0,0.,24.0,0.,24.0
1979-07-13 04:14:10.650 ,1,0,12.,24.0,0.,24.0,0.,24.0,0.,24.0
1979-07-13 04:14:34.650 ,0,0,,0,,0,,0,,0
1979-07-13 04:14:58.650 ,0,0,,0,,0,,0,,0
1979-07-13 04:50:11.250 ,0,0,4.,24.0,1.,24.0,0.,24.0,0.,24.0
1979-07-13 04:50:34.650 ,3,1,4.,24.0,3.,24.0,0.,24.0,0.,24.0
1979-07-13 04:50:58.650 ,3,0,11.,24.0,3.,24.0,0.,24.0,0.,24.0
1979-07-13 04:51:22.650 ,4,1,4.,24.0,1.,24.0,0.,24.0,0.,24.0
1979-07-13 04:51:46.650 ,4,0,5.,24.0,0.,24.0,0.,24.0,0.,24.0
1979-07-13 04:52:10.650 ,5,1,4.,24.0,1.,24.0,0.,24.0,0.,24.0
1979-07-13 04:52:34.650 ,5,0,9.,24.0,2.,24.0,0.,24.0,0.,24.0
1979-07-13 04:52:58.650 ,6,1,7.,24.0,1.,24.0,0.,24.0,0.,24.0
1979-07-13 04:53:22.650 ,6,0,7.,24.0,1.,24.0,0.,24.0,0.,24.0
1979-07-13 04:53:46.650 ,7,1,9.,24.0,1.,24.0,0.,24.0,0.,24.0
1979-07-13 04:54:10.650 ,7,0,45.,24.0,0.,24.0,0.,24.0,0.,24.0
1979-07-13 04:54:34.650 ,7,1,41.,24.0,0.,24.0,0.,24.0,0.,24.0
1979-07-13 04:54:58.650 ,7,0,37.,24.0,0.,24.0,0.,24.0,0.,24.0
1979-07-13 04:55:22.650 ,6,1,31.,24.0,0.,24.0,0.,24.0,0.,24.0
1979-07-13 04:55:46.650 ,6,0,3.,24.0,0.,24.0,0.,24.0,0.,24.0
1979-07-13 04:56:10.650 ,5,1,7.,24.0,1.,24.0,0.,24.0,0.,24.0
1979-07-13 04:56:34.650 ,5,0,13.,24.0,1.,24.0,0.,24.0,0.,24.0
1979-07-13 04:56:58.650 ,4,1,8.,24.0,0.,24.0,0.,24.0,0.,24.0
1979-07-13 04:57:22.650 ,4,0,10.,24.0,1.,24.0,0.,24.0,0.,24.0
1979-07-13 04:57:46.650 ,3,1,14.,24.0,3.,24.0,0.,24.0,0.,24.0
1979-07-13 04:58:10.650 ,3,0,4.,24.0,1.,24.0,0.,24.0,0.,24.0
1979-07-13 04:58:34.650 ,2,1,12.,24.0,1.,24.0,0.,24.0,0.,24.0
1979-07-13 04:58:58.650 ,2,0,11.,24.0,2.,24.0,0.,24.0,0.,24.0
1979-07-13 04:59:22.650 ,1,1,5.,24.0,1.,24.0,0.,24.0,0.,24.0
1979-07-13 04:59:46.650 ,1,0,4.,24.0,3.,24.0,0.,24.0,0.,24.0
1979-07-13 05:00:10.650 ,0,1,8.,24.0,3.,24.0,0.,24.0,0.,24.0
1979-07-13 05:00:34.650 ,0,0,4.,24.0,2.,24.0,0.,24.0,0.,24.0
1979-07-13 05:00:58.650 ,0,1,1.,24.0,1.,24.0,0.,24.0,0.,24.0
1979-07-13 05:01:22.650 ,0,0,2.,24.0,0.,24.0,0.,24.0,0.,24.0
1979-07-13 05:01:46.650 ,1,1,4.,24.0,1.,24.0,0.,24.0,0.,24.0
1979-07-13 05:02:10.650 ,1,0,3.,24.0,0.,24.0,0.,24.0,0.,24.0
1979-07-13 05:02:34.650 ,2,1,2.,24.0,0.,24.0,0.,24.0,0.,24.0
1979-07-13 05:02:58.650 ,2,0,10.,24.0,1.,24.0,0.,24.0,0.,24.0
1979-07-13 05:03:22.650 ,3,1,7.,24.0,1.,24.0,0.,24.0,0.,24.0
1979-07-13 05:03:46.650 ,3,0,8.,24.0,4.,24.0,0.,24.0,0.,24.0
1979-07-13 05:04:10.650 ,4,1,8.,24.0,2.,24.0,0.,24.0,0.,24.0
1979-07-13 05:04:34.650 ,4,0,9.,24.0,1.,24.0,0.,24.0,0.,24.0
1979-07-13 05:04:58.650 ,5,1,12.,24.0,1.,24.0,0.,24.0,0.,24.0
1979-07-13 05:05:22.650 ,5,0,12.,24.0,1.,24.0,0.,24.0,0.,24.0
1979-07-13 05:05:46.650 ,6,1,6.,24.0,2.,24.0,0.,24.0,0.,24.0
1979-07-13 05:06:10.650 ,6,0,10.,24.0,0.,24.0,0.,24.0,0.,24.0
1979-07-13 05:06:34.650 ,7,0,16.,24.0,2.,24.0,0.,24.0,0.,24.0
1979-07-13 05:06:58.650 ,7,0,28.,24.0,0.,24.0,0.,24.0,0.,24.0
1979-07-13 05:07:22.650 ,5,1,15.,24.0,1.,24.0,0.,24.0,0.,24.0
1979-07-13 05:07:46.650 ,1,1,5.,24.0,0.,24.0,0.,24.0,0.,24.0
1979-07-13 05:08:10.650 ,2,1,3.,24.0,0.,24.0,0.,24.0,0.,24.0
1979-07-13 05:08:34.650 ,6,1,2.,24.0,3.,24.0,0.,24.0,0.,24.0
1979-07-13 05:08:58.650 ,5,1,30.,24.0,0.,24.0,0.,24.0,0.,24.0
1979-07-13 05:09:22.650 ,1,1,5.,24.0,0.,24.0,0.,24.0,0.,24.0
1979-07-13 05:09:46.650 ,2,1,0.,24.0,0.,24.0,0.,24.0,0.,24.0
1979-07-13 05:10:10.650 ,6,1,2.,24.0,2.,24.0,0.,24.0,0.,24.0
1979-07-13 05:10:34.650 ,5,1,18.,24.0,0.,24.0,0.,24.0,0.,24.0
1979-07-13 05:10:58.650 ,1,1,4.,24.0,1.,24.0,0.,24.0,0.,24.0
1979-07-13 05:11:22.650 ,2,1,1.,24.0,1.,24.0,0.,24.0,0.,24.0
1979-07-13 05:11:46.650 ,6,1,2.,24.0,0.,24.0,0.,24.0,0.,24.0
1979-07-13 05:12:10.650 ,5,1,18.,24.0,0.,24.0,0.,24.0,0.,24.0
1979-07-13 05:12:34.650 ,1,1,3.,24.0,1.,24.0,0.,24.0,0.,24.0
1979-07-13 05:12:58.650 ,2,1,3.,24.0,0.,24.0,0.,24.0,0.,24.0
1979-07-13 05:13:22.650 ,6,1,2.,24.0,0.,24.0,0.,24.0,0.,24.0
1979-07-13 05:13:46.650 ,5,1,13.,24.0,2.,24.0,0.,24.0,0.,24.0
1979-07-13 05:14:10.650 ,1,1,3.,24.0,0.,24.0,0.,24.0,0.,24.0
1979-07-13 05:14:34.650 ,2,1,1.,24.0,0.,24.0,0.,24.0,0.,24.0
1979-07-13 05:14:58.650 ,6,1,1.,24.0,1.,24.0,0.,24.0,0.,24.0
1979-07-13 05:15:22.650 ,5,1,19.,24.0,1.,24.0,0.,24.0,0.,24.0
1979-07-13 05:15:46.650 ,1,1,2.,24.0,0.,24.0,0.,24.0,0.,24.0
1979-07-13 05:16:10.650 ,2,1,2.,24.0,0.,24.0,0.,24.0,0.,24.0
1979-07-13 05:16:34.650 ,6,1,2.,24.0,0.,24.0,0.,24.0,0.,24.0
1979-07-13 05:16:58.650 ,5,1,14.,24.0,0.,24.0,0.,24.0,0.,24.0
1979-07-13 05:17:22.650 ,1,1,4.,24.0,0.,24.0,0.,24.0,0.,24.0
1979-07-13 05:17:46.650 ,0,0,4.,24.0,0.,24.0,0.,24.0,0.,24.0
1979-07-13 05:18:10.650 ,0,0,8.,24.0,1.,24.0,0.,24.0,0.,24.0
1979-07-13 05:18:34.650 ,5,1,12.,24.0,0.,24.0,0.,24.0,0.,24.0
1979-07-13 05:18:58.650 ,5,0,8.,24.0,0.,24.0,0.,24.0,0.,24.0
1979-07-13 05:19:22.650 ,4,1,6.,24.0,1.,24.0,0.,24.0,0.,24.0
1979-07-13 05:19:46.650 ,4,0,11.,24.0,3.,24.0,0.,24.0,0.,24.0
1979-07-13 05:20:10.650 ,3,1,11.,24.0,0.,24.0,0.,24.0,0.,24.0
1979-07-13 05:20:34.650 ,3,0,3.,24.0,0.,24.0,0.,24.0,0.,24.0
1979-07-13 05:20:58.650 ,2,1,7.,24.0,2.,24.0,0.,24.0,0.,24.0
1979-07-13 05:21:22.650 ,2,0,7.,24.0,0.,24.0,0.,24.0,0.,24.0
1979-07-13 05:21:46.650 ,1,1,6.,24.0,1.,24.0,0.,24.0,0.,24.0
1979-07-13 05:22:10.650 ,1,0,7.,24.0,1.,24.0,0.,24.0,0.,24.0
1979-07-13 05:22:34.650 ,0,1,1.,24.0,1.,24.0,0.,24.0,0.,24.0
1979-07-13 05:22:58.650 ,0,0,4.,24.0,0.,24.0,0.,24.0,0.,24.0
1979-07-13 05:23:22.650 ,0,1,1.,24.0,1.,24.0,0.,24.0,0.,24.0
1979-07-13 05:23:46.650 ,0,0,2.,24.0,0.,24.0,0.,24.0,0.,24.0
1979-07-13 05:24:10.650 ,1,1,7.,24.0,0.,24.0,0.,24.0,0.,24.0
1979-07-13 05:24:34.650 ,1,0,3.,24.0,2.,24.0,0.,24.0,0.,24.0
1979-07-13 05:24:58.650 ,2,1,9.,24.0,3.,24.0,0.,24.0,0.,24.0
1979-07-13 05:25:22.650 ,2,0,4.,24.0,0.,24.0,0.,24.0,0.,24.0
1979-07-13 05:25:46.650 ,3,1,8.,24.0,1.,24.0,0.,24.0,0.,24.0
1979-07-13 05:26:10.650 ,3,0,16.,24.0,1.,24.0,0.,24.0,0.,24.0
1979-07-13 05:26:34.650 ,4,1,9.,24.0,0.,24.0,0.,24.0,0.,24.0
1979-07-13 05:26:58.650 ,4,0,7.,24.0,1.,24.0,0.,24.0,0.,24.0
1979-07-13 05:27:22.650 ,5,1,4.,24.0,0.,24.0,0.,24.0,0.,24.0
1979-07-13 05:27:46.650 ,5,0,8.,24.0,0.,24.0,0.,24.0,0.,24.0
1979-07-13 05:28:10.650 ,6,1,8.,24.0,1.,24.0,0.,24.0,0.,24.0
1979-07-13 05:28:34.650 ,6,0,3.,24.0,2.,24.0,0.,24.0,0.,24.0
1979-07-13 05:28:58.650 ,7,1,14.,24.0,0.,24.0,0.,24.0,0.,24.0
1979-07-13 05:29:22.650 ,7,0,41.,24.0,0.,24.0,0.,24.0,0.,24.0
1979-07-13 05:29:46.650 ,7,1,25.,24.0,0.,24.0,0.,24.0,0.,24.0
1979-07-13 05:30:10.650 ,7,0,41.,24.0,0.,24.0,0.,24.0,0.,24.0
1979-07-13 05:30:34.650 ,6,1,22.,24.0,1.,24.0,0.,24.0,0.,24.0
1979-07-13 05:30:58.650 ,6,0,4.,24.0,0.,24.0,0.,24.0,0.,24.0
1979-07-13 05:31:22.650 ,5,1,6.,24.0,2.,24.0,0.,24.0,0.,24.0
1979-07-13 05:31:46.650 ,5,0,8.,24.0,1.,24.0,0.,24.0,0.,24.0
1979-07-13 05:32:10.650 ,4,1,5.,24.0,2.,24.0,0.,24.0,0.,24.0
1979-07-13 05:32:34.650 ,4,0,8.,24.0,1.,24.0,0.,24.0,0.,24.0
1979-07-13 05:32:58.650 ,3,1,8.,24.0,1.,24.0,0.,24.0,0.,24.0
1979-07-13 05:33:22.650 ,3,0,3.,24.0,0.,24.0,0.,24.0,0.,24.0
1979-07-13 05:33:46.650 ,2,1,7.,24.0,2.,24.0,0.,24.0,0.,24.0
1979-07-13 05:34:10.650 ,2,0,5.,24.0,0.,24.0,0.,24.0,0.,24.0
1979-07-13 05:34:34.650 ,1,1,8.,24.0,0.,24.0,0.,24.0,0.,24.0
1979-07-13 05:34:58.650 ,1,0,3.,24.0,0.,24.0,0.,24.0,0.,24.0
1979-07-13 05:35:22.650 ,0,1,6.,24.0,0.,24.0,0.,24.0,0.,24.0
1979-07-13 05:35:46.650 ,0,0,2.,24.0,1.,24.0,0.,24.0,0.,24.0
1979-07-13 05:36:10.650 ,0,1,5.,24.0,0.,24.0,0.,24.0,0.,24.0
1979-07-13 05:36:34.650 ,0,0,3.,24.0,0.,24.0,0.,24.0,0.,24.0
1979-07-13 05:36:58.650 ,1,1,2.,24.0,1.,24.0,0.,24.0,0.,24.0
1979-07-13 05:37:22.650 ,1,0,2.,24.0,1.,24.0,0.,24.0,0.,24.0
1979-07-13 05:37:46.650 ,2,1,1.,24.0,0.,24.0,0.,24.0,0.,24.0
1979-07-13 05:38:10.650 ,2,0,6.,24.0,1.,24.0,0.,24.0,0.,24.0
1979-07-13 05:38:34.650 ,3,1,5.,24.0,1.,24.0,0.,24.0,0.,24.0
1979-07-13 05:38:58.650 ,3,0,4.,24.0,0.,24.0,0.,24.0,0.,24.0
1979-07-13 05:39:22.650 ,4,1,10.,24.0,0.,24.0,0.,24.0,0.,24.0
1979-07-13 05:39:46.650 ,4,0,5.,24.0,0.,24.0,0.,24.0,0.,24.0
1979-07-13 05:40:10.650 ,5,1,7.,24.0,1.,24.0,0.,24.0,0.,24.0
1979-07-13 05:40:34.650 ,5,0,7.,24.0,0.,24.0,0.,24.0,0.,24.0
1979-07-13 05:40:58.650 ,6,1,2.,24.0,1.,24.0,0.,24.0,0.,24.0
1979-07-13 05:41:22.650 ,6,0,3.,24.0,1.,24.0,0.,24.0,0.,24.0
1979-07-13 05:41:46.650 ,7,1,13.,24.0,0.,24.0,0.,24.0,0.,24.0
1979-07-13 05:42:10.650 ,7,0,19.,24.0,0.,24.0,0.,24.0,0.,24.0
1979-07-13 05:42:34.650 ,7,1,19.,24.0,0.,24.0,0.,24.0,0.,24.0
1979-07-13 05:42:58.650 ,7,0,38.,24.0,0.,24.0,0.,24.0,0.,24.0
1979-07-13 05:43:22.650 ,6,1,25.,24.0,0.,24.0,0.,24.0,0.,24.0
1979-07-13 05:43:46.650 ,6,0,2.,24.0,1.,24.0,0.,24.0,0.,24.0
1979-07-13 05:44:10.650 ,5,1,0.,24.0,1.,24.0,0.,24.0,0.,24.0
1979-07-13 05:44:34.650 ,5,0,5.,24.0,2.,24.0,0.,24.0,0.,24.0
1979-07-13 05:44:58.650 ,4,1,3.,24.0,0.,24.0,0.,24.0,0.,24.0
1979-07-13 05:45:22.650 ,4,0,3.,24.0,0.,24.0,0.,24.0,0.,24.0
1979-07-13 05:45:46.640 ,3,1,3.,24.0,0.,24.0,0.,24.0,0.,24.0
1979-07-13 05:46:10.640 ,3,0,1.,24.0,0.,24.0,0.,24.0,0.,24.0
1979-07-13 05:46:34.640 ,2,1,0.,24.0,0.,24.0,0.,24.0,0.,24.0
1979-07-13 05:46:58.640 ,2,0,4.,24.0,0.,24.0,0.,24.0,0.,24.0
1979-07-13 05:47:22.640 ,1,1,1.,24.0,0.,24.0,0.,24.0,0.,24.0
1979-07-13 05:47:46.640 ,1,0,1.,24.0,0.,24.0,0.,24.0,0.,24.0
1979-07-13 05:48:10.640 ,0,1,5.,24.0,0.,24.0,0.,24.0,0.,24.0
1979-07-13 05:48:34.640 ,0,0,3.,24.0,0.,24.0,0.,24.0,0.,24.0
1979-07-13 05:48:58.640 ,0,1,0.,24.0,0.,24.0,0.,24.0,0.,24.0
1979-07-13 05:49:22.640 ,0,0,0.,24.0,0.,24.0,0.,24.0,0.,24.0
1979-07-13 05:49:46.640 ,1,1,2.,24.0,0.,24.0,0.,24.0,0.,24.0
1979-07-13 05:50:10.640 ,1,0,2.,24.0,0.,24.0,0.,24.0,0.,24.0
1979-07-13 05:50:34.640 ,2,1,0.,24.0,0.,24.0,0.,24.0,0.,24.0
1979-07-13 05:50:58.640 ,2,0,1.,24.0,1.,24.0,0.,24.0,0.,24.0
1979-07-13 05:51:22.640 ,3,1,3.,24.0,0.,24.0,0.,24.0,0.,24.0
1979-07-13 05:51:46.640 ,3,0,3.,24.0,0.,24.0,0.,24.0,0.,24.0
1979-07-13 05:52:10.640 ,4,1,1.,24.0,1.,24.0,0.,24.0,0.,24.0
1979-07-13 05:52:34.640 ,4,0,0.,24.0,0.,24.0,0.,24.0,0.,24.0
1979-07-13 05:52:58.640 ,5,1,2.,24.0,0.,24.0,0.,24.0,0.,24.0
1979-07-13 05:53:22.640 ,5,0,1.,24.0,0.,24.0,0.,24.0,0.,24.0
1979-07-13 05:53:46.640 ,6,1,0.,24.0,1.,24.0,0.,24.0,0.,24.0
1979-07-13 05:54:10.640 ,6,0,2.,24.0,0.,24.0,0.,24.0,0.,24.0
1979-07-13 05:54:34.640 ,7,0,11.,24.0,1.,24.0,0.,24.0,0.,24.0
1979-07-13 05:54:58.640 ,7,0,38.,24.0,0.,24.0,0.,24.0,0.,24.0
1979-07-13 05:55:22.640 ,5,1,14.,24.0,0.,24.0,0.,24.0,0.,24.0
1979-07-13 05:55:46.640 ,1,1,5.,24.0,0.,24.0,0.,24.0,0.,24.0
1979-07-13 05:56:58.640 ,0,0,15.,24.0,0.,24.0,0.,24.0,0.,24.0
1979-07-13 05:57:22.640 ,1,1,2.,24.0,0.,24.0,0.,24.0,0.,24.0
1979-07-13 05:57:46.640 ,2,1,1.,24.0,2.,24.0,0.,24.0,0.,24.0
1979-07-13 05:58:10.640 ,6,1,4.,24.0,1.,24.0,0.,24.0,0.,24.0
1979-07-13 05:58:34.640 ,5,1,8.,24.0,0.,24.0,0.,24.0,0.,24.0
1979-07-13 05:58:58.640 ,1,1,0.,24.0,1.,24.0,0.,24.0,0.,24.0
1979-07-13 05:59:22.640 ,2,1,3.,24.0,1.,24.0,0.,24.0,0.,24.0
1979-07-13 05:59:46.640 ,6,1,2.,24.0,0.,24.0,0.,24.0,0.,24.0
1979-07-13 06:00:10.640 ,5,1,18.,24.0,0.,24.0,0.,24.0,0.,24.0
